TimeEST,TemperatureF,Dew PointF,Humidity,Sea Level PressureIn,VisibilityMPH,Wind Direction,Wind SpeedMPH,Gust SpeedMPH,PrecipitationIn,Events,Conditions,WindDirDegrees,DateUTC
12:14 AM,32.5,24.1,71,30.12,10.0,WSW,10.4,-,N/A,,Mostly Cloudy,250,2013-01-06 05:14:00
12:33 AM,32.2,23.9,72,30.11,10.0,WSW,10.4,-,N/A,,Scattered Clouds,240,2013-01-06 05:33:00
12:54 AM,32.0,23.9,72,30.10,10.0,SW,9.2,-,N/A,,Mostly Cloudy,230,2013-01-06 05:54:00
1:14 AM,32.0,23.9,72,30.10,10.0,WSW,8.1,-,N/A,,Mostly Cloudy,240,2013-01-06 06:14:00
1:34 AM,31.5,23.9,74,30.09,10.0,SW,6.9,-,N/A,,Overcast,220,2013-01-06 06:34:00
1:54 AM,31.1,23.7,74,30.09,10.0,SSW,8.1,-,N/A,,Overcast,210,2013-01-06 06:54:00
2:13 AM,31.3,24.4,76,30.08,10.0,SW,8.1,-,N/A,,Overcast,220,2013-01-06 07:13:00
2:34 AM,31.6,24.6,75,30.08,10.0,SW,9.2,-,N/A,,Overcast,220,2013-01-06 07:34:00
2:54 AM,31.8,24.8,75,30.08,10.0,SW,8.1,-,N/A,,Overcast,220,2013-01-06 07:54:00
3:14 AM,32.0,24.8,75,30.07,10.0,SSW,8.1,-,N/A,,Overcast,210,2013-01-06 08:14:00
3:34 AM,31.5,24.8,76,30.07,10.0,SSW,6.9,-,N/A,,Overcast,210,2013-01-06 08:34:00
3:54 AM,30.9,25.0,79,30.06,10.0,SSW,6.9,-,N/A,,Overcast,200,2013-01-06 08:54:00
4:14 AM,31.1,25.3,79,30.05,10.0,SSW,6.9,-,N/A,,Overcast,200,2013-01-06 09:14:00
4:54 AM,32.0,25.9,78,30.04,10.0,SW,9.2,-,N/A,,Overcast,220,2013-01-06 09:54:00
5:14 AM,32.2,26.1,78,30.03,10.0,SW,9.2,-,N/A,,Overcast,230,2013-01-06 10:14:00
5:34 AM,32.9,26.2,76,30.03,10.0,SW,9.2,-,N/A,,Overcast,230,2013-01-06 10:34:00
5:54 AM,32.5,26.4,78,30.02,10.0,SW,9.2,-,N/A,,Overcast,220,2013-01-06 10:54:00
6:14 AM,32.5,26.6,79,30.02,10.0,SW,9.2,-,N/A,,Overcast,220,2013-01-06 11:14:00
6:34 AM,32.2,26.8,80,30.02,10.0,SW,10.4,-,N/A,,Overcast,220,2013-01-06 11:34:00
6:54 AM,32.7,27.0,79,30.02,10.0,SW,9.2,-,N/A,,Overcast,220,2013-01-06 11:54:00
7:14 AM,32.9,27.1,79,30.02,10.0,SSW,8.1,-,N/A,,Overcast,210,2013-01-06 12:14:00
7:34 AM,32.9,27.1,79,30.03,10.0,SW,9.2,-,N/A,,Overcast,220,2013-01-06 12:34:00
7:54 AM,33.1,27.3,79,30.02,10.0,SSW,10.4,-,N/A,,Overcast,210,2013-01-06 12:54:00
8:14 AM,33.3,27.5,79,30.03,10.0,SSW,11.5,-,N/A,,Overcast,210,2013-01-06 13:14:00
8:34 AM,33.6,27.5,78,30.03,10.0,SW,9.2,-,N/A,,Overcast,220,2013-01-06 13:34:00
8:54 AM,33.8,27.9,79,30.03,10.0,SSW,12.7,-,N/A,,Overcast,210,2013-01-06 13:54:00
9:14 AM,34.0,28.0,79,30.03,10.0,SSW,11.5,-,N/A,,Overcast,210,2013-01-06 14:14:00
9:34 AM,34.2,28.0,78,30.03,10.0,SSW,11.5,-,N/A,,Overcast,210,2013-01-06 14:34:00
9:54 AM,34.2,28.4,79,30.03,10.0,SW,10.4,-,N/A,,Overcast,220,2013-01-06 14:54:00
10:14 AM,34.7,28.4,78,30.03,10.0,SW,10.4,-,N/A,,Overcast,220,2013-01-06 15:14:00
10:34 AM,34.7,28.9,79,30.03,10.0,SW,8.1,-,N/A,,Overcast,220,2013-01-06 15:34:00
10:54 AM,35.1,28.9,78,30.03,10.0,SW,10.4,-,N/A,,Overcast,220,2013-01-06 15:54:00
11:14 AM,35.2,28.9,78,30.03,10.0,SW,10.4,-,N/A,,Overcast,220,2013-01-06 16:14:00
11:34 AM,35.6,28.9,77,30.02,10.0,SW,9.2,-,N/A,,Overcast,220,2013-01-06 16:34:00
11:54 AM,35.6,28.9,77,30.01,10.0,SW,9.2,-,N/A,,Overcast,230,2013-01-06 16:54:00
12:14 PM,35.6,29.3,78,30.00,10.0,SW,9.2,-,N/A,,Overcast,230,2013-01-06 17:14:00
12:34 PM,35.8,29.3,77,29.99,10.0,SW,10.4,-,N/A,,Overcast,230,2013-01-06 17:34:00
12:54 PM,35.8,29.3,77,29.99,10.0,SW,8.1,-,N/A,,Overcast,230,2013-01-06 17:54:00
1:14 PM,36.0,29.3,77,29.99,10.0,WSW,10.4,-,N/A,,Overcast,250,2013-01-06 18:14:00
1:34 PM,36.0,29.3,77,29.99,10.0,WSW,9.2,-,N/A,,Overcast,250,2013-01-06 18:34:00
1:54 PM,35.6,29.7,79,29.99,10.0,West,9.2,-,N/A,,Overcast,260,2013-01-06 18:54:00
2:14 PM,34.7,30.7,85,30.00,2.0,West,10.4,-,N/A,,Overcast,260,2013-01-06 19:14:00
2:33 PM,34.2,31.8,91,30.00,2.5,West,6.9,-,N/A,,Overcast,260,2013-01-06 19:33:00
2:54 PM,33.8,32.0,93,30.01,2.5,WSW,6.9,-,N/A,,Overcast,250,2013-01-06 19:54:00
3:14 PM,34.0,32.0,92,30.02,3.0,West,8.1,-,N/A,,Overcast,260,2013-01-06 20:14:00
3:34 PM,34.0,32.0,92,30.03,4.0,West,5.8,-,N/A,,Overcast,260,2013-01-06 20:34:00
3:54 PM,33.8,31.3,90,30.04,4.0,WNW,15.0,21.9,0.01,,Overcast,290,2013-01-06 20:54:00
4:14 PM,32.0,29.1,89,30.07,5.0,WNW,15.0,21.9,N/A,,Overcast,300,2013-01-06 21:14:00
4:34 PM,31.5,27.7,86,30.08,3.0,NW,18.4,24.2,N/A,,Overcast,310,2013-01-06 21:34:00
4:54 PM,30.6,26.2,84,30.09,7.0,WNW,16.1,26.5,N/A,,Overcast,300,2013-01-06 21:54:00
5:14 PM,30.2,26.2,85,30.10,7.0,WNW,17.3,25.3,N/A,,Overcast,300,2013-01-06 22:14:00
5:34 PM,28.9,24.3,83,30.12,7.0,NW,19.6,23.0,N/A,,Overcast,310,2013-01-06 22:34:00
5:54 PM,28.4,23.5,82,30.13,7.0,NW,19.6,26.5,N/A,,Overcast,310,2013-01-06 22:54:00
6:14 PM,27.5,22.3,81,30.15,7.0,NW,16.1,21.9,N/A,,Overcast,310,2013-01-06 23:14:00
6:34 PM,27.1,21.9,81,30.15,7.0,WNW,15.0,-,N/A,,Overcast,300,2013-01-06 23:34:00
6:54 PM,26.6,21.7,82,30.17,7.0,WNW,13.8,19.6,N/A,,Overcast,290,2013-01-06 23:54:00
7:14 PM,26.6,21.2,80,30.19,7.0,WNW,16.1,-,N/A,,Overcast,290,2013-01-07 00:14:00
7:34 PM,26.2,21.2,81,30.20,7.0,WNW,19.6,23.0,N/A,,Overcast,290,2013-01-07 00:34:00
7:54 PM,26.1,21.2,82,30.20,5.0,WNW,10.4,-,N/A,,Overcast,290,2013-01-07 00:54:00
8:14 PM,25.7,21.2,83,30.21,5.0,WNW,13.8,-,N/A,,Overcast,290,2013-01-07 01:14:00
8:34 PM,25.7,21.2,83,30.21,5.0,WNW,13.8,-,N/A,,Overcast,290,2013-01-07 01:34:00
8:54 PM,25.7,21.6,84,30.23,5.0,WNW,13.8,-,N/A,,Overcast,290,2013-01-07 01:54:00
9:14 PM,26.1,21.7,84,30.23,5.0,WNW,12.7,-,N/A,,Overcast,290,2013-01-07 02:14:00
9:34 PM,26.1,21.9,84,30.23,5.0,WNW,13.8,-,N/A,,Overcast,300,2013-01-07 02:34:00
10:14 PM,26.4,22.5,85,30.25,5.0,WNW,12.7,-,N/A,,Overcast,290,2013-01-07 03:14:00
10:53 PM,26.6,22.6,85,30.27,5.0,WNW,13.8,-,N/A,,Overcast,290,2013-01-07 03:53:00
11:14 PM,27.1,22.8,84,30.27,5.0,WNW,11.5,-,N/A,,Overcast,290,2013-01-07 04:14:00
11:34 PM,27.3,23.0,84,30.28,5.0,WNW,10.4,-,N/A,,Overcast,290,2013-01-07 04:34:00
11:54 PM,27.5,23.0,83,30.29,5.0,WNW,10.4,-,N/A,,Overcast,290,2013-01-07 04:54:00